Regional Weather Roundup
Issued by NWS Nashville, TN

Home | Current Version | Previous Version | Text Only | Print | Product List | Glossary On
Versions: 1 2 3 4 5 6 7 8 9 10 11 12 13 14 15 16 17 18 19 20 21 22 23 24 25 26 27 28
000
ASUS44 KOHX 251310
RWROHX
MIDDLE TENNESSEE HOURLY WEATHER ROUNDUP
NATIONAL WEATHER SERVICE NASHVILLE TN
800 AM CDT THU AUG 25 2016

NOTE: "FAIR" INDICATES FEW OR NO CLOUDS BELOW 12,000 FEET WITH
NO SIGNIFICANT WEATHER AND/OR OBSTRUCTIONS TO VISIBILITY.

* THESE REPORTS ARE NOT UNDER NWS QUALITY CONTROL AND MAY NOT
  REPORT WEATHER SUCH AS PRECIPITATION AND FOG.


TNZ005>011-023>034-057-059-062>066-078-080-251400
...NORTHERN MIDDLE TENNESSEE...

CITY           SKY/WX    TMP DP  RH WIND       PRES   REMARKS
CLARKSVILLE    SUNNY     78  74  87 CALM      30.15R
CROSSVILLE     MOSUNNY   72  68  87 VRB5      30.26R
NASHVILLE      MOSUNNY   77  72  84 S3        30.17R
WEST NASHVILLE MOSUNNY   77  73  88 SW5       30.15S
SMYRNA         MOSUNNY   77  72  83 MISG      30.16S
SPARTA         SUNNY     77  73  88 S3        30.19S
$$
TNZ056-058-060-061-075>077-079-093>097-251400
...SOUTHERN MIDDLE TENNESSEE...

CITY           SKY/WX    TMP DP  RH WIND       PRES   REMARKS
COLUMBIA       SUNNY    N/A N/A N/A CALM      30.16S
FAYETTEVILLE   SUNNY     77  73  88 S6        30.20S
MCMINNVILLE    SUNNY     77  77 100 CALM      30.20F
SHELBYVILLE    SUNNY     81  75  83 S3        30.20R
TULLAHOMA      MOSUNNY   75  72  88 SE3       30.22S
WINCHESTER     MOSUNNY   77  72  83 E5        30.21S
$$


...KEY TO REMARKS...
VSB - VISIBILITY IN MILES
WCI - WIND CHILL INDEX
HX  - HEAT INDEX





USA.gov is the U.S. government's official web portal to all federal, state and local government web resources and services.